Probability
0 0 0 0 0 0 0 0 0 0 0 0 0 0 0 0 0 0 0 0 0 0 0 0 0 0 0 0 0 0 0 0 1 1 1 0 0 0 0 0 0 0 0
0 0 0 0 0 0 0 0 0 0 0 0 0 0 0 0 0 0 0 0 0 0 0 0 0 0 0 0 0 0 0 0 0 0 0 0 0 0 0 0 0 0 0
0 0 0 0 0 0 0 0 0 0 0 0 0 0 0 0 0 0 0 0 0 0 0 0 0 0 0 0 0 0 0 0 0 0 0 0 0 0 0 0 0 0 0
0 0 0 0 0 0 0 0 0 0 0 0 0 0 0 0 0 0 0 0 0 0 0 0 0 0 0 0 0 0 0 0 0 0 0 0 0 0 0 0 0 0 0
0 0 0 0 0 0 0 0 0 0 0 0 0 0 0 0 0 0 0 0 0 0 0 0 0 0 0 0 0 0 0 0 1 0 0 0 0 0 0 0 0 0 0
1 0 0 0 0 0 0 0 0 0 0 0 0 0 0 0 0 0 0 0 0 0 0 0 0 0 0 0 0 0 0 0 0 0 0 0 0 0 0 0 0 0 0
2 1 0 0 0 0 0 0 0 0 0 0 0 0 0 0 0 0 0 0 0 0 0 0 0 0 0 0 0 0 0 0 0 0 0 0 0 0 0 0 0 0 0
4 3 1 0 0 0 0 0 0 0 0 0 0 0 0 0 0 0 0 0 0 0 0 0 0 0 0 0 0 0 0 0 0 0 0 0 0 0 0 0 0 0 0
5 3 1 0 0 0 0 0 0 0 0 0 0 0 0 0 0 0 0 0 0 0 0 0 0 0 0 0 0 0 0 0 0 0 0 0 0 0 0 0 0 0 0
5 3 1 1 0 0 0 0 0 0 0 0 0 0 0 0 0 0 0 0 0 0 0 0 0 0 0 0 0 0 0 0 0 0 0 0 0 0 0 0 0 0 0
4 3 3 2 1 0 0 0 0 0 0 0 0 0 0 0 0 0 0 0 0 0 0 0 0 0 0 0 0 0 0 0 0 0 0 0 0 0 0 0 0 0 0
3 3 3 2 1 0 0 0 0 0 0 0 0 0 0 0 0 0 0 0 0 0 0 0 0 0 0 0 0 0 0 0 0 0 0 0 0 0 0 0 0 0 0
3 3 3 2 1 0 0 0 0 0 0 0 0 0 0 0 0 0 0 0 0 0 0 0 0 0 0 0 0 0 0 0 0 0 0 0 0 0 0 0 0 0 0
1 2 2 2 1 0 0 0 0 0 0 0 0 0 0 0 0 0 0 0 0 0 0 0 0 0 0 0 0 0 0 0 0 0 0 0 0 0 0 0 0 0 0
0 1 1 1 0 0 0 0 0 0 0 0 0 0 0 0 0 0 0 0 0 0 0 0 0 0 0 0 0 0 0 0 0 0 0 0 0 0 0 0 0 0 0
0 0 0 0 0 0 0 0 0 0 0 0 0 0 0 0 0 0 0 0 0 0 0 0 0 0 0 0 0 0 0 0 0 0 0 0 0 0 0 0 0 0 0
0 0 0 0 0 0 0 0 0 0 0 0 0 0 0 0 0 0 0 0 0 0 0 0 0 0 0 0 0 0 0 0 0 0 0 0 0 0 0 0 0 0 0
0 0 0 0 0 0 0 0 0 0 0 0 0 0 0 0 0 0 0 0 0 0 0 0 0 0 0 0 0 0 0 0 0 0 0 0 0 0 0 0 0 0 0
0 0 0 0 0 0 0 0 0 0 0 0 0 0 0 0 0 0 0 0 0 0 0 0 0 0 0 0 0 0 0 0 0 0 0 0 0 0 0 0 0 0 0
0 0 0 0 0 0 0 0 0 0 0 0 0 0 0 0 0 0 0 0 0 0 0 0 0 0 0 0 0 0 0 0 0 0 0 0 0 0 0 0 0 0 0
0 0 0 0 0 0 0 0 0 0 0 0 0 0 0 0 0 0 0 0 0 0 0 0 0 0 0 0 0 0 0 0 0 0 0 0 0 0 0 0 0 0 0
0 0 0 0 0 0 0 0 0 0 0 0 0 0 0 0 0 0 0 0 0 0 0 0 0 0 0 0 0 0 0 0 0 0 0 0 0 0 0 0 0 0 0
0 0 0 0 0 0 0 0 0 0 0 0 0 0 0 0 0 0 0 0 0 0 0 0 0 0 0 0 0 0 0 0 0 0 0 0 0 0 0 0 0 0 0
0 0 0 0 0 0 0 0 0 0 0 0 0 0 0 0 0 0 0 0 0 0 0 0 0 0 0 0 0 0 0 0 0 0 0 0 0 0 0 0 0 0 0
0 0 0 0 0 0 0 0 0 0 0 0 0 0 0 0 0 0 0 0 0 0 0 0 0 0 0 0 0 0 0 0 0 0 0 0 0 0 0 0 0 0 0
0 0 0 0 0 0 0 0 0 0 0 0 0 0 0 0 0 0 0 0 0 0 0 0 0 0 0 0 0 0 0 0 0 0 0 0 0 0 0 0 0 0 0
Wind_Speed
4 4 3 3 3 2 2 2 2 2 2 2 3 5 5 6 5 4 4 11 11 10 11 11 11 10 10 10 9 9 9 9 9 8 8 8 8 9 9 8 8 7 7
5 4 4 3 3 3 3 3 3 3 2 2 3 5 6 6 5 5 4 7 11 11 10 11 11 11 11 10 10 9 9 9 9 8 8 8 7 8 8 8 8 7 6
6 5 4 3 3 3 3 2 2 2 2 2 3 3 4 5 5 5 4 3 5 9 10 10 10 11 11 11 11 10 9 9 9 8 8 7 7 7 7 7 8 7 6
6 5 4 3 3 2 2 2 2 2 1 2 2 2 3 4 5 5 4 4 3 4 7 11 10 10 11 11 11 11 10 10 9 9 8 8 8 8 7 7 8 7 7
6 5 3 3 3 2 2 2 2 2 2 2 2 2 3 4 4 5 5 5 5 4 4 7 11 11 11 11 11 11 11 11 10 10 10 10 9 9 8 8 8 8 8
6 5 3 3 3 3 2 2 2 2 2 2 1 2 1 2 3 4 5 5 4 5 5 4 4 6 11 11 11 11 12 12 11 11 11 11 11 10 9 9 9 9 9
6 5 4 3 3 3 3 4 3 2 1 2 3 2 2 1 1 2 3 3 4 5 5 5 4 3 4 9 10 10 11 12 12 12 12 12 11 11 10 10 10 10 10
5 5 5 4 3 3 3 3 3 2 1 2 3 2 2 3 2 1 2 3 4 3 5 6 5 5 4 3 6 10 11 11 12 12 12 12 12 11 11 11 11 11 11
5 5 5 4 4 3 3 3 4 4 2 1 2 4 3 3 2 2 2 3 4 3 4 4 6 6 6 4 4 8 11 11 11 12 11 11 11 11 11 12 12 12 12
5 5 5 5 4 3 3 3 3 3 4 1 0 1 2 4 3 1 2 1 3 4 4 4 5 6 6 4 6 8 11 11 11 12 11 11 11 11 11 12 12 12 13
5 5 5 5 4 3 3 3 4 3 3 3 2 1 1 1 2 2 1 2 2 3 3 4 4 4 5 5 5 8 11 11 11 10 10 9 10 10 11 11 13 13 13
3 4 5 5 4 4 4 4 4 4 3 3 2 2 2 2 2 2 2 2 2 3 2 3 4 4 4 5 8 11 11 11 11 10 10 9 9 9 10 11 12 13 13
3 4 5 4 4 4 4 4 4 3 3 3 2 2 1 1 2 3 3 1 1 2 2 2 3 3 4 4 5 10 11 11 11 11 10 9 9 9 9 9 10 11 11
4 5 5 5 5 5 4 4 3 2 2 2 2 2 1 0 1 2 3 3 1 2 2 3 2 3 3 3 6 10 6 11 11 11 11 11 11 10 10 10 10 10 10
5 6 6 5 5 4 4 4 2 2 3 2 2 1 1 0 1 1 2 3 4 1 2 3 2 2 2 2 5 4 4 8 11 11 11 11 11 11 10 10 10 10 10
5 6 6 5 5 4 4 4 2 2 3 2 1 1 1 0 1 2 2 2 2 3 2 3 2 2 1 1 3 3 4 6 8 10 10 10 11 11 11 11 11 11 11
6 6 6 6 5 5 4 3 2 3 3 2 1 1 1 1 1 1 2 2 1 2 2 2 2 2 2 1 1 0 1 1 2 6 7 8 9 9 10 10 10 10 11
6 6 6 5 5 5 4 4 4 3 3 2 2 1 1 1 1 1 1 2 1 1 2 1 2 2 2 2 2 1 1 1 2 3 3 4 5 6 7 8 9 10 10
6 5 6 5 4 4 4 4 3 3 3 2 2 2 1 2 2 1 2 2 1 1 1 1 1 1 2 2 3 2 3 3 3 3 4 4 5 7 7 7 8 8 8
5 5 5 4 4 3 3 3 3 4 3 3 3 3 2 3 2 2 2 2 2 2 2 2 1 2 2 2 3 3 3 3 3 4 5 5 6 8 8 8 7 7 8
6 5 5 4 4 3 2 3 4 5 5 5 5 5 5 6 6 4 3 2 3 2 2 2 2 2 2 3 2 2 2 3 3 3 4 4 4 4 5 7 7 9 9
6 7 6 5 5 3 4 7 7 6 6 6 6 5 5 7 9 10 10 8 6 4 2 2 1 1 1 1 1 2 2 3 4 3 3 5 3 4 4 4 8 10 10
7 8 7 7 7 7 9 10 11 8 7 6 5 5 5 6 7 6 8 10 10 10 6 2 1 1 1 1 1 2 1 1 3 4 3 3 3 3 4 6 9 9 9
8 8 8 7 8 9 11 12 13 10 9 8 7 6 6 6 6 5 6 6 6 6 6 4 2 1 2 2 1 1 1 2 3 3 1 2 3 3 5 5 8 9 10
9 9 8 8 9 9 12 12 11 8 8 8 7 7 7 6 9 9 6 5 5 5 6 9 8 7 8 8 5 3 3 2 3 3 2 2 3 4 4 4 5 10 12
10 10 9 8 9 9 11 12 11 7 7 5 5 6 8 7 8 8 6 5 5 4 5 6 7 8 7 8 9 4 2 1 1 3 3 3 3 3 5 3 3 5 7
Wind_Direction
165 167 174 179 189 186 179 185 188 195 184 153 150 151 152 155 161 160 171 176 174 172 170 170 169 168 166 165 165 166 166 163 159 157 157 158 159 159 159 158 156 155 154
162 163 168 178 188 184 177 178 176 168 161 144 140 147 158 161 170 169 173 180 183 181 180 179 178 177 174 175 176 173 173 172 170 170 170 169 168 168 170 168 167 165 162
159 158 159 172 181 173 164 149 143 128 133 125 125 143 154 168 171 177 177 178 186 191 188 187 188 188 187 186 185 183 183 181 179 181 182 181 179 180 181 179 179 178 177
153 149 152 171 174 156 144 138 126 110 112 121 137 156 154 167 174 184 184 185 187 195 199 197 197 197 197 196 195 194 193 190 189 191 191 191 192 192 194 191 190 190 191
146 142 152 166 157 135 135 146 122 134 138 140 157 158 163 168 174 188 194 195 197 198 198 207 205 203 206 206 205 203 201 200 199 201 203 204 205 204 202 202 201 201 202
145 139 146 153 138 128 128 125 125 120 138 152 136 122 178 186 175 185 196 197 201 203 199 206 206 213 215 216 214 212 211 208 206 208 211 213 214 213 210 210 211 211 213
148 140 140 139 136 143 152 146 125 114 94 109 82 39 358 326 200 200 196 192 204 206 195 202 203 204 219 225 223 221 220 218 214 215 216 218 219 219 217 217 217 218 220
153 151 146 146 147 139 137 134 123 118 87 114 121 98 19 343 326 221 194 199 205 199 204 207 204 203 213 214 225 227 226 226 224 222 221 221 222 223 221 221 222 223 225
155 148 149 144 146 146 152 152 139 134 134 71 133 141 149 218 288 319 241 211 200 199 210 207 206 209 212 212 220 231 230 228 230 231 228 224 224 226 226 226 227 227 228
155 150 148 145 148 148 153 158 144 139 134 128 63 143 169 161 155 287 318 277 223 216 212 213 210 210 208 204 214 220 227 226 229 233 234 230 228 229 231 232 235 236 235
157 153 147 142 144 146 151 144 131 127 132 142 147 139 110 110 131 142 244 298 295 250 223 219 214 211 207 204 210 220 221 221 225 230 233 233 233 232 234 237 242 245 244
158 160 148 142 143 143 149 145 137 133 131 130 132 132 146 158 187 160 185 233 252 269 245 227 218 215 209 205 217 218 216 218 222 226 229 232 237 240 242 244 247 249 251
165 174 154 150 146 150 153 142 131 135 142 138 145 148 151 182 184 159 150 190 248 293 304 273 233 220 217 204 219 219 217 217 219 222 226 232 237 241 243 245 248 253 255
173 169 159 156 155 154 152 140 131 148 149 150 144 139 141 153 139 153 156 146 95 333 321 290 288 236 227 207 219 216 219 217 217 222 228 234 237 240 242 245 247 251 254
168 164 158 153 154 154 151 143 143 157 150 157 151 138 149 145 99 117 134 145 145 162 282 289 297 285 247 218 215 202 213 220 222 228 234 239 243 246 247 249 250 252 254
159 154 157 156 155 156 153 146 144 154 149 162 160 136 130 123 75 71 88 106 137 156 213 269 271 299 305 231 205 201 226 234 234 239 244 247 249 251 252 253 253 255 256
153 158 161 160 162 161 156 152 164 156 162 173 166 152 192 152 96 68 76 84 95 135 183 280 293 322 13 5 18 297 274 268 272 259 257 260 262 264 265 265 264 263 262
155 160 157 160 168 168 167 169 185 178 175 184 196 165 209 127 90 67 77 74 73 126 155 251 318 345 358 350 7 16 0 357 306 309 284 286 291 290 287 282 277 272 269
148 148 146 154 160 162 167 173 177 179 172 170 170 154 157 119 100 78 76 68 47 51 89 121 341 355 359 10 14 3 10 358 340 345 359 5 345 331 318 307 301 294 287
137 132 126 125 127 128 142 156 145 134 122 105 94 92 85 101 109 99 77 58 60 55 50 68 36 12 8 1 31 7 351 345 337 357 3 359 352 347 337 331 326 318 306
122 114 107 99 93 95 113 133 128 122 114 99 83 73 72 81 79 78 81 70 69 63 53 54 40 28 13 13 5 348 340 324 321 357 347 340 340 340 336 336 335 327 320
103 99 97 94 79 67 83 103 109 106 104 102 92 76 67 61 68 67 68 65 68 74 70 60 45 42 346 330 333 349 350 356 323 332 352 322 340 334 326 328 333 334 335
104 97 91 86 78 63 76 91 97 100 96 92 90 82 73 57 52 58 58 55 50 50 60 95 76 329 293 279 313 330 331 305 277 296 340 304 321 320 321 333 334 339 345
105 99 92 86 80 68 74 86 94 91 86 79 79 81 79 57 50 61 66 57 45 35 38 47 45 327 324 305 259 251 279 302 295 300 347 301 313 309 316 312 320 339 348
102 95 90 85 82 71 70 81 91 92 87 78 74 74 77 69 55 62 68 60 42 21 29 36 36 33 29 31 38 43 18 15 331 311 347 328 303 308 301 298 323 346 344
105 99 87 79 81 75 72 79 86 95 93 85 72 64 65 66 57 60 67 63 47 10 9 20 26 23 27 29 35 44 37 20 325 309 326 335 309 329 315 301 317 325 323